Wind_Speed
50 51 52 52 51 50 52 53 53 53 52 51 50 50 51 51 52 53 53 53 52 51 51 51 51 52 52 52 51 51 49 48 48 47 46 45 45 46 47 47 46 46 47 47 48 49 49 49 50 50 51 51 51 51 52 52 52 52 52 53 53 55 56 57 57 58 60 61 63 64 65 67 68 69 71 71 72 73 75 77 79 81 82 84 83
47 48 48 48 47 47 48 49 49 48 47 46 46 48 48 49 50 50 50 49 49 49 49 49 49 49 48 47 47 46 45 45 44 44 44 45 46 46 45 44 43 44 45 46 47 48 48 49 50 51 51 51 52 52 53 53 53 52 52 53 54 56 57 58 58 59 60 62 63 65 67 68 70 71 72 72 72 74 76 78 80 82 84 85 83
45 46 45 44 44 44 44 44 44 43 42 42 42 44 45 45 46 46 45 44 45 45 45 45 45 45 44 44 43 42 42 42 42 43 45 45 45 43 41 41 43 44 45 46 47 47 48 49 50 51 52 52 53 53 53 53 52 51 52 53 55 57 58 58 59 60 62 63 64 66 68 69 71 72 72 73 73 75 77 79 81 83 85 86 83
43 43 43 43 43 42 41 41 40 40 39 39 39 41 42 42 41 41 41 41 41 42 42 42 42 41 41 40 39 39 40 41 42 42 42 42 40 39 40 42 43 43 44 45 45 46 47 49 50 52 53 53 53 52 52 51 51 52 54 55 56 58 58 59 60 62 63 64 65 67 69 70 71 72 73 74 74 76 77 79 81 84 87 86 83
42 42 43 42 39 38 38 38 37 37 37 37 38 38 38 37 38 38 39 39 39 39 39 39 38 37 37 37 37 38 39 39 39 39 39 38 38 39 40 42 41 42 43 44 46 47 48 50 53 54 54 53 52 52 52 52 53 54 54 55 57 58 59 60 62 63 63 64 66 68 69 71 72 73 74 75 76 77 78 80 81 84 87 87 84
41 42 40 37 34 34 35 35 35 35 35 35 36 35 34 35 36 37 37 36 35 35 36 35 35 35 36 36 36 36 36 37 37 37 38 37 37 39 41 40 40 41 43 46 48 49 50 53 55 55 55 54 53 53 53 53 54 54 55 56 58 59 60 61 62 63 63 65 67 68 69 70 71 73 74 75 77 79 80 82 83 85 87 87 85
41 39 36 33 32 33 34 34 33 32 33 33 32 31 32 34 35 36 36 35 35 35 34 33 34 35 35 34 34 34 36 36 36 36 37 36 37 40 41 39 40 43 47 49 51 51 52 55 57 57 56 56 55 54 54 55 55 56 56 57 59 60 60 61 61 62 64 66 67 68 69 70 71 72 74 75 77 79 80 82 85 86 86 86 86
39 36 33 31 32 33 34 32 30 30 30 29 28 29 30 32 34 34 35 36 35 34 33 34 34 34 33 33 33 35 35 35 34 35 35 36 38 41 40 40 42 46 49 52 53 52 54 58 60 60 59 59 58 57 57 58 58 58 58 59 59 59 59 60 61 63 64 65 66 68 69 70 71 72 74 75 76 78 79 81 84 86 85 84 85
38 35 33 32 33 34 32 30 28 28 28 28 28 28 30 31 32 33 33 34 34 34 33 33 34 33 32 33 35 35 34 34 34 35 36 37 40 40 40 41 45 48 51 53 54 54 57 60 62 62 62 61 60 59 59 59 59 59 59 59 58 57 58 60 62 64 64 65 66 67 68 69 71 72 74 75 77 78 79 81 83 84 83 83 84
38 36 34 34 34 33 31 29 28 29 30 30 30 30 31 32 32 32 33 34 34 33 32 32 32 31 32 34 34 33 33 34 37 38 38 38 40 40 41 44 47 50 53 54 55 57 59 60 61 62 62 61 60 59 60 60 60 59 59 58 58 59 61 62 63 63 63 64 65 66 67 69 70 72 74 75 76 78 79 81 83 82 82 83 84
39 37 35 35 34 33 32 31 30 31 33 32 32 32 33 34 33 33 34 35 34 33 31 31 31 32 33 33 32 32 34 37 40 40 38 38 40 41 43 46 49 52 53 55 58 59 60 60 60 61 61 60 60 60 61 61 60 60 60 60 61 62 63 62 62 62 62 63 64 65 67 69 70 72 73 74 76 77 79 81 82 81 80 81 83
40 38 36 36 35 35 34 32 32 33 35 34 34 34 35 35 35 35 36 34 33 33 31 31 32 33 32 32 33 34 35 37 40 39 37 38 40 42 44 48 51 53 54 57 60 60 60 61 62 62 61 61 61 61 61 62 61 62 62 63 63 63 63 62 61 61 62 62 64 65 66 68 70 71 73 74 75 77 79 81 81 80 79 80 82
41 39 38 37 37 37 35 33 33 35 36 36 35 36 36 36 36 37 36 34 33 33 31 31 32 32 32 33 34 34 35 36 37 36 37 39 41 42 46 50 53 56 57 59 60 60 61 62 63 62 62 63 63 62 62 63 64 64 64 64 63 63 62 61 60 60 60 61 63 64 66 67 69 70 72 73 75 77 79 80 79 79 80 80 81
41 40 39 39 39 39 37 35 34 36 37 37 37 38 38 38 38 38 36 34 32 29 28 30 32 32 33 34 35 36 36 37 36 36 37 40 42 44 47 51 56 59 60 62 62 62 63 64 64 64 64 65 64 62 64 67 68 67 66 65 64 62 61 60 59 59 59 61 62 64 65 67 68 69 71 72 74 77 79 79 78 79 80 81 81
42 43 42 41 41 41 39 37 36 37 39 38 38 39 40 40 39 38 36 33 29 25 26 30 32 32 33 35 38 41 39 36 35 36 38 42 45 47 49 53 58 60 61 64 64 64 65 65 66 66 67 68 66 64 67 71 71 69 68 66 65 63 61 59 58 58 59 60 62 64 65 66 67 68 70 72 74 77 77 76 77 78 79 80 81
45 45 45 44 43 43 41 39 38 39 40 41 40 41 41 41 40 38 36 32 27 25 26 28 30 32 34 37 41 42 38 35 35 38 42 47 48 48 52 57 60 60 62 65 65 66 66 66 67 68 69 70 67 66 70 72 70 70 69 67 65 62 60 58 57 58 59 60 62 63 64 65 66 68 69 71 74 76 75 75 76 77 78 80 81
48 48 47 46 46 45 44 42 40 41 43 42 42 42 42 41 40 38 35 31 29 27 25 26 28 32 34 36 38 39 37 36 37 41 46 48 47 50 56 59 59 61 65 66 66 68 68 67 68 70 71 71 68 69 72 70 69 71 70 66 64 61 58 57 57 58 59 60 62 63 63 64 66 67 69 71 74 74 73 74 76 76 77 79 80
51 51 50 49 48 47 46 44 43 44 44 44 44 43 42 41 40 39 35 32 30 28 24 24 28 30 32 33 36 39 41 41 43 46 47 45 47 54 59 58 58 63 67 67 68 69 68 68 69 72 73 71 70 72 73 69 70 73 69 63 61 58 56 57 57 58 59 60 61 62 63 64 65 67 69 71 72 72 72 74 75 76 77 78 77
54 54 52 51 50 49 48 46 45 45 45 46 45 44 43 42 41 40 36 33 31 27 22 24 30 31 29 31 38 43 46 48 49 48 46 48 53 57 57 57 60 66 68 69 70 70 69 69 71 73 74 72 71 73 72 69 71 74 67 60 58 56 55 56 57 58 59 59 60 61 62 63 65 67 69 71 71 71 72 74 75 75 76 77 75
57 55 54 52 51 50 49 48 47 47 47 47 46 45 44 43 42 41 38 34 32 27 22 24 31 32 30 34 42 49 51 52 52 48 48 53 57 56 56 59 63 67 70 71 71 70 70 70 71 73 75 73 72 72 71 70 73 72 63 58 56 55 55 56 57 58 59 59 59 60 61 63 66 67 70 70 70 70 72 73 74 74 75 75 73
56 55 54 53 53 52 51 49 49 49 48 48 47 45 45 45 44 42 39 36 33 29 26 27 31 34 34 37 44 49 51 52 52 51 52 55 56 56 59 62 65 69 71 72 72 71 71 71 71 74 75 74 72 71 71 73 73 68 61 57 56 56 56 57 57 58 58 58 59 60 61 64 66 68 70 70 69 70 72 73 73 74 74 73 70
55 54 53 53 53 53 52 51 50 48 48 48 48 47 46 47 45 43 42 40 35 31 30 31 34 36 38 41 45 47 48 49 52 53 55 57 57 58 61 64 68 71 72 73 72 72 72 72 72 74 75 73 71 71 72 74 72 66 59 57 56 56 57 57 58 58 58 58 59 60 62 64 66 68 70 69 69 71 72 73 73 74 74 72 67
53 50 49 49 50 49 49 49 48 47 48 49 49 48 47 46 46 46 46 43 38 34 34 34 34 35 38 41 43 44 46 49 52 53 55 57 59 61 64 68 70 72 73 73 72 72 72 72 72 74 75 73 71 72 72 73 70 64 58 57 56 56 57 58 58 58 58 58 59 60 62 64 66 68 69 69 70 72 73 73 74 74 74 72 66
49 42 39 41 44 44 45 46 46 47 49 49 49 48 46 46 47 49 47 44 40 38 36 35 33 33 35 37 40 43 47 51 52 53 55 59 62 65 68 70 71 72 72 72 71 71 71 70 71 75 75 73 71 72 72 72 68 63 58 57 57 57 58 58 58 58 58 59 60 60 62 64 66 68 69 69 70 72 73 73 74 75 75 72 66
44 36 36 41 45 45 44 44 44 46 48 48 47 47 46 46 47 45 42 41 42 41 39 37 35 34 36 40 44 48 53 56 56 57 59 61 65 68 69 70 71 71 71 70 70 71 70 69 72 75 75 73 72 72 71 71 67 62 58 58 58 58 58 58 58 58 58 59 60 61 62 64 66 67 68 68 69 71 72 73 74 75 76 73 67
42 38 42 49 50 47 42 40 42 45 45 45 46 46 46 45 43 39 37 37 40 40 38 36 35 34 40 47 50 53 58 60 59 60 62 64 66 67 68 69 69 69 69 70 69 69 68 69 72 74 74 73 73 72 71 69 65 60 58 59 59 58 58 58 58 58 58 59 60 61 62 64 66 67 67 67 69 70 71 72 73 74 74 72 67
47 47 51 53 50 46 43 43 46 49 49 47 45 44 45 46 43 39 35 35 36 38 37 35 32 33 42 51 54 55 58 59 60 61 63 64 65 66 67 67 67 67 68 68 68 68 68 69 72 74 75 74 73 72 70 68 65 60 58 59 59 59 58 58 58 58 58 59 60 61 63 64 66 66 66 67 68 69 70 71 72 73 72 69 65
54 55 55 52 47 46 47 49 52 54 53 52 49 47 50 52 50 45 40 37 38 42 44 41 37 37 43 49 50 50 52 53 55 57 59 62 65 67 67 67 66 67 67 67 67 67 68 69 73 75 76 75 73 72 71 69 65 61 59 60 59 58 58 58 58 58 59 59 60 61 63 64 65 66 66 66 67 68 69 70 71 71 70 67 61
60 59 56 51 47 47 48 51 54 55 53 53 53 53 55 57 56 53 49 44 41 42 46 46 45 45 48 49 49 49 51 54 56 58 61 65 67 67 67 66 66 66 65 65 66 67 68 70 73 75 75 74 73 72 72 70 66 61 59 59 58 56 56 57 57 58 58 59 60 61 62 64 65 65 65 66 67 67 67 68 69 70 69 65 60
62 59 56 51 46 45 46 47 51 54 54 54 54 56 57 57 58 57 54 49 45 43 43 45 47 48 51 53 53 55 57 59 61 63 65 66 66 65 66 66 65 64 64 64 66 67 69 72 74 74 74 73 72 72 72 70 65 60 59 59 57 54 54 55 56 57 57 58 59 60 62 64 65 64 64 65 66 66 66 67 68 69 68 65 59
59 57 55 51 45 40 39 42 46 50 53 55 57 60 61 60 61 61 57 53 51 50 47 47 48 50 53 55 57 59 60 61 63 64 65 65 65 65 65 65 64 63 63 64 66 69 71 73 74 74 73 72 72 72 70 67 63 61 60 59 57 53 52 53 54 55 56 57 59 60 62 64 64 63 63 64 65 65 65 66 67 68 68 64 59
58 58 56 51 45 40 39 42 45 47 49 53 56 60 64 65 66 67 63 57 54 53 52 50 50 50 52 55 58 59 61 62 63 64 65 65 65 65 65 64 63 63 64 66 69 71 73 74 74 74 74 73 73 71 68 64 61 60 60 59 55 52 51 52 53 54 55 56 58 60 62 63 63 63 63 63 64 65 64 65 66 67 67 64 59
59 58 56 49 44 43 42 44 46 46 45 48 53 59 62 64 67 69 66 60 55 53 53 52 52 53 55 58 60 60 61 63 63 63 64 65 65 65 64 63 63 64 65 68 71 72 73 75 76 75 76 76 74 69 64 61 60 60 60 57 53 50 50 51 52 53 54 56 58 60 62 62 62 62 62 63 63 64 63 64 65 65 65 63 59
58 59 58 54 48 46 44 43 45 45 41 43 52 57 56 56 60 64 65 64 62 59 56 55 56 58 59 59 60 62 63 63 63 63 63 64 64 63 62 63 64 66 68 70 71 73 75 76 77 78 79 78 74 67 62 59 59 60 58 54 50 48 48 50 51 52 54 56 58 60 61 62 61 61 61 62 63 63 62 63 64 64 64 63 59
62 62 63 60 54 51 48 46 46 45 40 41 50 57 55 52 52 55 59 64 66 65 63 62 63 64 63 62 63 64 65 64 63 62 62 62 62 62 63 64 66 68 70 71 72 74 77 79 80 82 82 79 73 65 60 58 59 57 54 50 48 47 48 49 50 52 54 56 58 60 61 61 60 60 61 61 62 62 62 62 63 63 63 62 59
66 65 64 59 53 50 51 50 49 47 42 39 43 50 54 53 52 55 60 64 66 66 67 67 67 67 67 67 66 65 64 63 62 61 60 59 61 62 64 66 68 70 71 73 75 77 80 82 83 85 84 79 70 63 59 58 57 54 50 48 47 47 48 48 50 52 54 57 59 60 61 60 59 60 60 61 61 61 61 61 62 62 62 62 59
61 59 55 49 41 39 42 46 49 49 46 41 41 47 54 57 59 62 66 67 66 66 67 68 69 69 69 69 67 63 61 60 60 59 59 60 61 63 65 67 70 72 74 76 78 81 83 85 86 86 83 76 67 61 58 57 54 50 48 48 47 48 48 49 50 52 55 57 59 60 60 59 59 59 60 60 61 61 60 61 61 62 62 61 59
47 42 40 38 36 36 39 45 52 56 55 53 53 57 61 62 62 65 67 67 67 68 69 69 70 71 70 68 65 62 60 60 60 60 60 61 64 66 67 69 72 74 76 79 81 83 85 87 88 86 81 73 65 60 58 55 51 48 48 48 48 49 50 50 52 54 56 58 59 59 59 58 58 59 60 60 60 60 60 60 61 61 61 61 59
36 30 31 37 41 44 47 51 57 63 65 66 66 66 65 64 64 64 66 67 68 70 71 71 72 71 69 66 64 62 62 61 61 62 63 65 67 69 70 72 74 76 78 81 83 85 87 87 87 84 78 69 63 59 56 52 49 48 49 49 50 51 51 51 53 55 57 59 59 59 59 58 58 58 59 59 59 60 59 60 60 61 61 61 59
38 34 35 41 47 52 55 58 61 66 69 70 70 68 65 64 65 66 67 68 70 70 71 71 70 69 68 67 66 65 64 64 64 65 66 68 69 71 73 75 77 79 81 83 85 86 87 87 85 81 74 66 60 57 53 50 49 50 51 51 51 52 52 53 54 56 57 59 59 59 58 58 58 58 59 59 59 59 59 59 60 61 61 60 59
43 45 46 48 51 55 59 61 63 66 69 70 71 69 66 64 65 66 67 68 69 69 70 69 69 68 68 67 67 66 65 65 66 68 69 70 71 74 76 78 80 82 83 85 86 87 87 86 83 78 70 63 58 55 52 51 51 52 52 53 52 53 54 55 56 57 58 59 59 58 58 58 58 58 58 58 58 58 59 59 60 60 61 60 59
45 50 54 58 59 60 60 60 61 62 64 66 67 67 66 65 65 66 66 67 68 69 69 69 69 68 67 66 65 65 66 67 69 70 70 72 74 77 79 80 82 84 85 86 87 87 86 85 81 74 66 60 57 54 52 52 52 52 53 53 53 54 55 56 57 58 59 59 59 58 58 58 58 58 58 58 57 58 58 59 59 60 61 60 58
51 53 56 62 66 67 64 62 60 60 61 62 64 65 65 66 66 67 67 68 68 68 68 68 68 67 65 65 65 66 68 70 71 72 73 75 78 79 81 83 84 85 86 86 87 87 85 83 79 72 64 59 56 55 54 54 53 53 53 54 55 56 57 58 58 59 59 59 58 58 58 58 58 58 58 58 58 58 58 58 59 60 61 60 58
59 60 61 63 66 67 66 63 61 61 61 61 63 64 65 65 65 65 66 66 66 67 67 67 66 66 65 66 67 69 71 73 75 76 78 79 81 83 84 86 87 87 87 87 86 86 84 81 76 70 63 59 57 56 56 55 55 55 55 56 57 58 59 59 60 60 59 59 58 58 58 58 58 58 58 58 58 58 58 59 59 60 60 60 58
59 62 64 66 67 67 67 66 63 61 61 61 61 62 62 62 63 63 64 65 65 66 66 66 66 67 67 68 71 73 76 77 79 80 81 82 84 86 87 88 89 89 88 88 87 86 84 80 75 69 63 59 57 57 57 57 57 58 58 58 59 60 60 60 60 59 59 58 58 58 58 59 59 59 58 58 59 59 59 59 60 60 61 60 58
60 63 66 69 70 70 70 70 68 66 64 64 64 64 64 63 63 64 65 66 66 67 67 68 69 71 72 73 76 78 80 81 81 82 84 85 86 88 89 90 90 91 90 89 88 86 83 79 74 69 64 61 59 59 59 59 59 60 60 61 61 61 61 60 59 59 58 58 58 59 59 59 59 59 59 59 59 59 60 60 60 61 61 59 57
61 65 69 71 73 73 73 74 74 73 71 71 70 69 69 69 69 69 69 70 70 71 71 73 75 77 79 80 81 82 83 83 83 84 86 87 87 88 90 91 91 92 91 91 89 86 83 79 74 69 65 62 60 60 61 61 61 61 62 62 62 61 60 59 59 58 58 59 59 60 60 60 60 59 59 59 59 60 60 61 61 61 60 58 55
63 64 67 69 71 72 74 75 76 76 76 76 76 75 75 75 75 75 75 76 76 77 77 78 80 82 83 84 84 84 84 84 85 86 87 88 88 89 90 91 91 91 91 89 87 84 80 77 72 68 65 63 61 61 62 62 62 62 62 62 61 61 60 59 59 59 59 59 60 61 61 61 60 60 59 60 60 61 61 62 62 61 60 57 53
69 68 68 68 69 70 71 73 75 76 77 77 78 78 78 78 78 77 77 78 79 80 80 81 82 83 84 85 85 84 84 85 85 87 88 89 89 90 91 91 91 90 88 86 83 80 77 74 70 67 65 64 63 63 63 62 62 63 62 62 61 60 60 59 59 59 60 60 61 61 61 61 61 60 60 60 61 61 62 62 62 61 59 55 52
75 74 74 73 73 73 73 73 74 75 76 77 77 78 78 79 79 79 79 80 81 82 83 83 84 84 85 85 84 85 85 86 87 88 89 90 91 91 91 91 90 88 86 83 81 78 75 72 70 68 66 65 64 64 64 63 63 63 62 62 61 61 61 60 61 61 61 62 62 62 62 62 61 61 61 61 62 62 63 63 62 60 57 53 50
78 78 78 78 78 78 77 76 76 76 76 77 77 78 78 79 79 79 80 80 81 82 83 84 84 85 85 85 85 86 87 88 89 90 90 91 91 91 90 89 87 85 83 81 79 76 74 72 70 69 68 67 66 65 64 64 64 63 63 63 63 62 62 62 63 63 63 63 63 63 62 62 62 62 62 62 63 63 63 63 61 58 55 51 49
Wind_Direction
250 251 252 254 255 255 256 258 259 261 263 265 266 267 268 269 270 271 273 275 276 278 279 280 282 284 287 289 290 292 294 296 298 299 300 302 303 305 307 309 310 312 313 313 314 314 314 314 313 313 312 311 311 310 310 310 311 312 312 312 313 313 314 315 317 317 317 317 317 317 317 318 319 319 320 321 322 325 326 327 327 328 329 331 332
247 248 250 252 253 254 254 256 258 260 263 264 266 267 268 269 270 272 274 276 278 279 280 282 284 286 287 289 290 292 294 297 298 299 300 301 303 305 308 310 313 314 315 316 316 317 317 316 315 315 314 314 313 312 312 312 313 313 312 312 313 313 314 315 316 316 316 316 316 316 317 317 318 319 320 321 323 325 326 327 327 328 330 331 332
244 246 248 250 251 252 254 256 258 260 262 263 264 266 268 269 271 274 276 278 279 280 282 283 284 286 287 288 290 292 294 296 297 298 299 301 303 305 309 313 315 316 318 319 319 320 320 319 319 318 318 318 317 315 314 314 313 313 312 313 313 313 314 315 315 315 315 315 316 316 316 317 318 319 320 322 324 325 327 328 328 329 330 331 332
243 245 246 247 249 252 254 257 259 260 261 263 264 265 268 270 274 276 278 278 280 281 283 283 284 285 286 287 290 293 295 296 298 299 300 301 304 308 313 316 318 320 321 322 322 323 323 324 323 323 323 322 320 317 316 315 314 313 314 315 314 313 314 315 314 315 315 315 315 316 316 317 318 319 321 323 325 326 327 328 329 329 330 331 332
240 241 243 245 249 251 254 256 258 260 261 262 263 266 269 273 276 277 278 280 282 283 283 284 284 284 286 289 292 294 296 298 299 300 301 303 307 313 317 320 322 323 325 325 326 326 326 326 326 327 326 324 322 319 317 316 315 315 315 315 314 313 314 314 314 314 314 314 315 315 316 317 319 320 322 324 325 327 328 328 329 330 330 331 331
237 238 241 244 247 250 253 255 257 258 260 261 264 268 273 275 276 277 279 281 283 284 284 283 284 285 288 291 293 295 297 299 300 301 303 306 310 317 321 322 324 325 327 327 327 327 327 327 328 329 328 325 323 321 319 317 316 316 315 314 312 312 313 313 313 314 314 314 315 316 317 318 320 322 324 325 326 327 328 329 329 330 331 331 332
235 237 240 243 246 249 251 254 255 258 260 263 268 272 273 274 275 278 280 281 282 283 283 283 285 287 289 290 293 296 299 301 302 303 305 307 313 318 321 322 324 325 326 326 327 328 327 328 329 329 328 326 324 322 320 318 317 316 315 313 312 312 313 313 314 314 315 315 315 317 318 319 321 323 324 325 327 328 328 329 330 331 332 332 332
234 236 239 241 244 247 250 252 255 258 261 265 269 271 272 274 276 278 280 280 280 281 281 283 285 286 287 290 294 298 300 301 303 306 307 309 313 317 319 320 323 324 325 326 327 328 328 328 329 328 328 327 326 324 321 319 318 316 315 313 313 313 313 313 314 315 315 315 316 317 319 321 322 324 325 326 327 328 328 329 330 331 332 332 333
232 234 236 238 241 245 249 251 253 257 261 264 267 270 272 276 278 279 280 280 280 280 281 283 283 284 287 292 296 299 300 300 302 305 307 310 312 315 317 318 320 323 324 325 327 329 329 328 328 328 328 328 327 325 322 319 318 316 315 314 313 313 313 314 315 315 315 316 317 318 320 322 323 324 325 326 327 328 328 329 330 331 332 332 332
231 233 235 238 241 246 249 250 252 256 260 263 267 270 274 276 278 279 280 281 282 283 282 282 282 285 292 298 300 299 298 298 299 301 305 308 311 314 315 316 319 322 323 325 328 329 329 328 327 327 327 327 326 324 322 320 319 317 316 315 314 313 313 314 314 315 316 317 318 319 321 322 323 324 325 326 327 328 328 330 331 331 332 332 333
232 234 236 239 242 246 248 249 252 257 260 264 267 270 274 276 278 278 280 283 285 284 282 280 283 290 297 301 301 297 293 294 296 297 300 306 310 312 314 316 319 321 323 325 327 328 328 327 326 325 325 325 325 323 322 321 321 319 317 316 315 314 314 314 314 315 316 317 319 320 321 322 323 324 325 326 327 328 329 330 331 331 332 333 333
233 236 239 241 243 246 249 251 253 257 261 263 266 269 273 275 275 277 281 285 286 285 283 282 286 293 300 303 303 298 293 292 293 295 298 303 307 310 313 316 318 320 322 325 326 326 326 325 325 324 324 324 324 323 323 324 324 322 319 317 316 315 315 315 315 316 317 318 320 321 322 323 324 324 325 326 327 328 329 330 331 332 332 333 333
235 240 242 244 245 248 251 254 254 257 260 263 265 268 271 272 274 277 281 285 287 287 286 286 289 294 300 302 302 299 294 291 291 293 296 300 304 309 312 315 316 318 322 324 324 324 325 325 325 324 324 324 323 322 323 325 325 324 321 318 317 316 316 316 316 317 318 319 320 321 322 323 324 324 325 326 327 328 329 330 331 332 333 333 333
239 243 245 247 248 250 253 255 254 256 261 264 266 268 269 271 273 277 280 284 288 290 290 291 292 295 298 299 301 300 296 292 290 290 292 298 303 306 309 312 314 317 320 322 323 323 324 325 325 324 324 323 321 321 322 324 324 324 321 320 319 318 317 317 318 318 318 319 320 321 322 323 323 324 325 326 328 329 330 331 332 332 333 333 334
240 243 245 247 249 250 254 255 254 257 262 265 267 268 268 270 272 275 279 284 289 292 293 290 290 292 296 298 301 303 300 295 289 286 290 299 303 303 305 310 312 314 318 320 321 323 324 325 326 324 323 322 320 319 321 323 324 324 322 321 320 319 318 318 318 318 319 320 321 321 322 323 323 324 326 327 329 330 330 331 332 333 333 333 334
239 242 245 247 249 251 254 256 256 259 264 267 268 267 267 269 271 274 278 282 287 290 288 285 288 295 299 300 300 300 299 294 287 285 291 299 303 302 304 308 310 312 316 319 320 322 323 324 325 323 322 321 319 318 321 323 324 324 322 320 319 319 318 317 318 318 319 320 321 321 322 323 324 325 327 328 329 330 331 332 332 333 333 334 334
240 242 244 247 249 252 255 257 259 262 266 268 267 266 266 268 269 272 276 281 286 287 285 287 292 297 298 297 296 297 297 293 289 291 295 298 300 301 304 307 310 313 317 318 320 322 322 323 323 322 322 321 319 319 321 322 323 323 320 318 318 318 317 316 317 318 319 320 321 321 322 323 324 326 328 329 330 330 331 332 333 333 334 335 334
241 243 245 247 249 253 256 259 262 265 267 268 266 265 265 267 269 271 274 280 285 284 283 284 285 287 286 282 282 287 290 289 289 293 296 296 299 303 305 306 309 313 315 316 318 320 320 321 322 321 321 321 320 321 321 321 322 323 320 316 317 317 316 316 316 317 319 320 321 321 322 323 325 326 328 329 330 331 332 332 333 334 334 335 335
242 244 245 248 251 255 259 262 265 267 267 266 265 264 265 266 268 270 272 279 284 283 280 273 270 275 277 269 269 277 281 283 287 291 293 295 298 300 300 301 303 308 312 314 316 317 319 320 320 321 321 321 321 321 321 319 321 322 319 316 317 317 317 316 317 318 319 320 320 321 322 324 326 327 328 330 331 332 333 333 334 334 335 335 335
243 245 248 250 253 257 260 263 266 266 265 264 263 264 264 265 266 267 272 280 284 280 274 264 260 266 270 262 262 271 277 280 284 286 289 294 296 295 295 296 299 304 308 311 314 316 317 318 319 320 322 321 321 321 320 319 320 321 319 317 317 317 317 317 318 319 319 320 320 322 323 325 326 328 329 330 332 332 333 333 334 334 335 336 335
244 247 250 252 256 259 261 265 268 265 262 262 263 262 262 262 263 266 272 280 282 276 269 263 260 264 267 263 262 269 275 278 282 285 289 291 291 292 295 296 297 301 305 309 312 314 316 316 318 320 322 321 320 320 320 320 321 321 319 317 317 317 317 317 318 319 320 320 321 322 324 326 327 329 330 331 332 333 333 333 334 334 336 337 336
245 249 254 258 260 262 263 266 267 263 259 260 260 259 260 262 264 270 276 280 280 272 266 266 266 267 268 268 268 270 273 276 280 284 287 288 289 292 294 294 295 299 304 308 310 312 314 315 317 320 321 320 319 319 320 321 322 321 319 318 317 316 317 317 319 320 320 320 321 323 325 327 328 330 331 332 333 333 333 334 335 335 336 337 336
246 253 259 263 264 263 263 263 262 258 257 257 257 258 261 264 267 273 278 280 277 273 271 272 271 267 263 264 268 270 272 275 279 282 284 285 287 289 290 291 294 299 304 307 309 310 312 314 316 319 320 319 318 318 320 322 322 320 318 317 316 316 317 318 319 320 320 320 321 323 326 327 329 331 332 333 333 333 333 334 335 336 337 337 336
243 248 255 261 263 261 258 257 256 255 254 254 255 258 261 266 271 276 279 279 276 274 273 271 266 259 256 261 267 268 268 272 277 279 281 282 284 286 288 291 295 300 303 305 307 308 311 313 315 318 318 317 317 318 320 321 320 318 315 315 315 316 317 317 318 319 319 320 321 324 326 328 330 331 332 333 333 333 333 335 336 336 337 337 336
240 240 245 254 258 257 254 254 255 255 253 252 255 259 263 269 274 277 279 278 276 277 276 272 266 262 262 267 270 268 269 273 277 278 278 280 283 285 288 292 296 300 302 304 305 307 310 312 314 317 317 316 316 318 319 319 318 316 314 314 315 316 316 317 318 318 319 320 322 324 326 329 331 332 333 333 333 333 334 335 336 337 338 337 335
232 230 235 242 246 249 250 253 255 256 255 254 257 261 266 271 276 279 279 278 278 280 278 272 268 267 266 268 268 268 270 274 276 277 279 281 284 286 290 294 297 300 301 303 305 307 310 312 314 316 317 316 316 316 317 317 316 314 313 314 315 315 316 316 317 318 319 320 322 324 326 329 331 332 332 333 333 333 334 335 336 338 338 337 335
226 226 232 237 239 240 240 243 249 253 254 255 258 263 268 272 274 277 281 281 281 281 278 274 270 266 263 265 266 267 270 273 275 277 279 282 285 289 293 295 298 300 301 303 305 307 309 311 314 316 317 316 315 315 315 316 314 311 310 312 313 313 314 315 316 317 319 320 322 324 327 330 332 332 332 332 333 333 334 335 336 338 338 338 336
224 229 234 237 238 236 234 235 241 246 249 251 255 261 266 270 272 274 277 280 278 275 273 272 268 260 257 260 263 265 269 274 276 278 281 284 288 291 293 295 297 299 301 302 304 306 308 311 314 316 316 315 314 314 314 314 312 309 307 309 311 310 311 313 314 316 318 320 322 324 327 330 331 331 331 332 333 333 334 335 336 338 338 338 336
225 230 234 237 239 239 237 237 241 245 248 252 256 260 264 267 270 271 272 273 271 267 267 268 266 262 260 260 261 263 268 273 276 278 282 286 288 290 292 295 297 298 299 301 303 305 308 311 314 316 316 315 314 313 312 312 311 308 307 308 310 309 309 311 313 315 318 320 321 324 327 329 330 331 331 332 332 333 333 334 336 337 339 338 337
228 232 235 237 239 241 242 245 249 251 252 255 260 263 263 264 266 268 269 269 267 263 263 264 264 264 265 265 265 267 270 273 276 279 282 285 287 289 292 294 295 296 298 300 302 304 308 312 315 316 316 315 313 311 310 309 309 309 309 310 310 309 308 309 311 314 317 319 321 324 327 329 329 330 330 331 331 332 333 334 336 338 339 339 337
231 234 236 237 239 242 248 254 256 256 258 263 266 266 265 264 264 266 268 269 268 266 265 266 266 265 264 265 267 269 272 275 279 281 282 284 286 288 290 291 293 295 297 299 301 304 309 313 316 317 316 314 311 309 307 307 308 309 310 311 310 308 308 309 311 314 317 319 321 324 327 328 329 329 329 330 330 331 332 334 336 338 339 339 338
231 234 235 236 238 241 245 249 251 254 260 267 268 267 267 267 267 267 267 268 268 266 266 268 270 270 268 268 270 272 276 280 282 282 283 284 286 287 288 290 292 294 297 299 302 306 310 314 317 317 316 313 311 308 306 306 308 309 309 310 309 308 308 310 312 314 317 319 321 324 326 327 328 328 328 329 329 330 332 334 336 338 339 339 338
231 233 233 234 237 237 237 241 245 247 253 258 261 263 265 266 267 267 266 265 265 265 265 267 270 273 274 275 274 275 278 281 282 282 282 283 285 286 288 290 292 295 298 301 304 308 312 315 317 317 315 313 310 307 306 306 307 308 309 309 307 307 308 310 312 315 317 319 322 324 325 326 326 327 327 328 329 330 332 333 335 337 338 339 338
233 235 236 238 239 238 236 237 241 242 244 250 254 256 258 262 265 265 264 263 263 263 264 267 270 273 277 278 277 277 279 281 281 281 281 283 284 286 288 291 294 297 300 303 306 309 312 314 316 316 315 313 310 307 306 306 308 308 308 307 306 307 309 310 313 315 318 320 322 323 324 325 325 325 326 327 328 329 331 333 334 336 338 338 338
235 237 240 242 243 240 236 235 238 239 239 244 251 254 256 261 263 263 263 265 266 265 264 265 268 273 277 280 280 280 280 280 280 280 281 283 284 286 289 292 296 299 302 305 307 309 311 313 314 315 315 312 309 306 306 307 308 308 307 306 306 307 309 311 313 316 318 320 321 322 323 323 324 324 325 326 327 328 330 331 333 336 337 338 338
238 240 243 246 246 240 234 233 236 236 233 235 245 252 255 258 262 265 268 270 269 266 264 263 266 271 275 279 281 281 280 279 279 280 282 283 285 288 292 295 299 302 304 306 307 309 310 312 314 315 314 312 308 306 306 307 307 307 306 305 306 307 309 311 313 316 318 319 320 321 321 322 323 323 324 325 326 327 329 330 332 334 337 338 338
242 243 243 240 236 229 225 225 228 229 225 225 233 244 251 257 263 267 269 268 266 264 262 262 265 270 274 278 281 281 280 279 279 280 282 284 287 291 294 297 300 303 305 306 308 309 310 312 314 315 314 311 307 306 306 307 307 306 305 305 306 307 309 311 314 316 318 318 319 319 320 321 322 322 323 324 325 326 328 329 331 333 335 337 337
236 235 231 222 214 211 212 214 218 222 225 230 236 245 252 258 261 262 263 262 263 263 263 265 268 272 275 278 279 279 279 279 280 281 283 286 289 292 295 298 301 303 305 307 308 309 311 313 314 314 313 309 306 305 305 306 305 305 305 305 306 308 310 312 314 316 317 317 318 318 319 320 320 321 322 323 324 325 326 328 329 332 334 335 336
213 212 215 213 211 214 216 218 221 226 232 238 244 249 253 256 257 259 260 261 263 264 265 267 270 272 275 277 279 279 280 280 281 283 285 288 291 294 296 298 300 303 304 306 307 309 311 313 314 314 311 307 304 304 304 304 304 304 304 305 306 307 309 312 314 315 316 316 316 317 317 318 319 320 321 322 323 323 325 326 328 330 332 334 335
202 202 209 214 216 218 221 224 229 233 237 241 247 251 254 255 256 257 259 260 262 263 265 267 270 272 275 278 280 280 280 280 282 284 287 289 291 293 295 297 299 301 303 304 307 309 311 312 313 312 309 304 302 302 302 302 302 303 303 304 305 307 310 312 313 314 315 315 315 315 315 316 318 319 320 321 321 322 323 325 327 329 330 332 333
212 213 216 220 221 223 225 230 234 237 239 242 246 251 254 255 256 256 258 259 261 263 265 268 271 274 277 279 280 280 280 281 283 285 287 288 290 292 294 297 298 300 302 304 306 308 310 312 312 311 307 303 301 302 301 301 302 302 302 304 306 308 310 311 312 313 313 313 313 313 314 315 316 318 319 320 320 320 321 323 325 327 328 330 331
219 221 224 226 226 227 231 235 238 240 242 243 246 249 252 254 255 256 258 260 263 265 268 270 273 275 277 277 277 278 278 280 282 284 286 288 291 293 294 296 298 300 302 304 306 308 310 311 312 310 306 302 301 301 301 301 301 301 302 304 306 308 309 310 311 312 311 311 311 312 313 314 315 316 317 318 318 319 320 322 323 325 327 328 329
221 225 229 230 229 231 234 238 240 242 243 245 247 249 251 254 256 259 261 264 266 268 270 272 274 275 275 275 275 276 278 281 283 285 286 289 291 293 294 295 297 300 302 304 306 308 309 310 310 308 304 301 300 300 300 300 300 301 303 304 306 307 308 309 309 310 309 309 310 311 312 313 314 315 316 316 317 317 319 320 322 323 325 326 327
230 232 234 233 232 234 237 241 243 244 246 247 249 251 253 256 259 261 263 265 267 269 271 272 273 274 273 274 275 278 280 282 283 285 286 289 290 292 294 296 298 300 302 304 305 307 308 308 308 305 302 300 299 298 299 299 300 302 303 304 305 306 307 307 308 308 308 308 309 310 310 312 313 314 314 315 315 316 317 319 320 322 323 324 326
233 235 237 236 236 238 240 243 245 247 249 251 253 255 257 260 262 264 266 268 270 271 271 271 272 272 273 274 277 279 281 282 284 285 287 289 291 292 295 297 299 300 301 303 304 305 306 306 305 303 300 298 298 298 298 300 301 302 303 304 304 304 305 306 306 306 306 307 308 308 309 310 311 312 313 313 314 314 316 317 319 320 321 323 323
232 234 237 238 238 239 240 242 244 248 251 253 256 258 260 261 263 265 267 268 270 270 270 270 271 272 274 275 277 279 281 284 285 287 289 290 292 294 296 297 298 300 301 302 303 304 305 305 304 301 299 298 298 298 299 300 301 301 302 302 302 303 303 304 304 305 305 306 306 307 308 309 310 311 311 311 312 313 314 316 317 318 320 321 321
233 235 238 240 240 240 241 243 245 247 250 253 255 257 259 260 262 263 265 266 267 269 269 270 271 273 275 277 279 281 283 285 287 288 290 291 293 294 296 297 298 300 301 302 303 303 304 303 303 301 299 298 298 298 299 300 300 300 300 300 301 301 302 303 303 303 304 305 305 306 307 307 308 309 309 310 311 312 313 314 315 317 318 319 319
234 236 238 241 243 243 244 245 247 249 251 253 255 257 259 260 262 263 265 266 268 269 270 271 272 274 276 278 280 282 284 286 287 288 290 291 293 294 296 297 298 299 300 301 302 302 302 302 301 300 298 298 298 298 298 298 298 298 299 299 300 300 301 302 302 303 303 304 304 305 305 306 307 308 308 308 309 310 311 313 314 315 316 316 316
238 239 239 242 244 246 247 247 249 250 252 254 256 258 259 261 262 264 265 266 268 269 271 272 273 275 277 278 280 282 284 286 287 288 290 291 293 294 295 296 297 298 299 299 300 300 300 299 298 297 297 297 297 297 297 297 297 297 298 298 299 300 300 301 301 302 302 303 303 304 304 305 306 306 307 307 308 309 310 311 312 313 313 314 313
241 241 242 244 247 249 250 250 251 252 253 255 257 259 260 262 263 264 266 267 268 270 271 273 275 276 278 280 282 283 285 286 287 289 290 291 293 294 295 296 296 297 297 297 298 297 297 297 296 296 296 296 296 296 296 296 297 297 298 298 299 299 300 300 301 301 302 302 302 303 303 304 304 305 305 306 307 307 308 309 310 310 311 311 310
242 243 244 246 248 250 251 252 253 254 256 257 258 260 262 263 265 266 268 269 270 272 273 275 276 278 279 281 282 283 285 286 288 289 290 291 292 293 294 294 295 295 295 295 295 295 295 295 295 295 295 295 295 295 296 296 296 297 297 298 298 299 300 300 300 300 301 301 301 301 302 302 303 303 304 304 305 306 307 307 308 308 308 308 308
Height
10677 10678 10679 10681 10683 10684 10684 10685 10687 10687 10688 10689 10689 10689 10688 10689 10688 10688 10688 10689 10690 10689 10689 10689 10687 10686 10685 10683 10682 10680 10678 10677 10675 10673 10671 10669 10667 10665 10663 10661 10658 10656 10653 10650 10648 10645 10642 10640 10636 10633 10631 10628 10625 10621 10618 10615 10612 10609 10605 10600 10597 10592 10589 10585 10582 10577 10573 10568 10563 10559 10554 10550 10546 10542 10538 10533 10528 10522 10515 10508 10500 10493 10487 10481 10474
10671 10672 10674 10676 10677 10679 10680 10681 10682 10683 10684 10685 10684 10684 10683 10683 10683 10683 10684 10685 10685 10684 10684 10683 10682 10681 10680 10678 10677 10675 10674 10673 10671 10669 10667 10665 10663 10661 10659 10657 10655 10652 10649 10647 10644 10641 10638 10635 10632 10629 10626 10623 10621 10617 10614 10610 10608 10604 10600 10596 10592 10588 10584 10581 10577 10573 10568 10564 10559 10554 10549 10544 10540 10535 10531 10527 10522 10516 10510 10502 10493 10485 10478 10473 10466
10665 10667 10669 10671 10672 10674 10675 10676 10677 10678 10679 10680 10680 10679 10678 10678 10678 10679 10679 10680 10680 10679 10679 10678 10677 10676 10675 10673 10672 10671 10670 10668 10666 10665 10663 10661 10659 10657 10655 10653 10651 10648 10646 10643 10640 10637 10634 10631 10628 10625 10622 10619 10616 10613 10609 10606 10603 10600 10596 10592 10588 10584 10580 10576 10572 10568 10564 10559 10554 10548 10544 10539 10534 10530 10525 10520 10515 10509 10503 10495 10485 10477 10470 10465 10459
10660 10663 10665 10666 10667 10669 10670 10671 10673 10674 10675 10675 10675 10674 10674 10674 10674 10674 10675 10675 10675 10674 10673 10673 10672 10671 10670 10669 10668 10667 10665 10664 10662 10661 10659 10657 10655 10653 10652 10649 10647 10644 10642 10639 10636 10633 10630 10627 10624 10621 10618 10615 10612 10608 10604 10601 10598 10595 10591 10588 10583 10579 10576 10572 10568 10563 10559 10554 10549 10544 10539 10533 10528 10523 10518 10513 10508 10502 10496 10489 10480 10470 10462 10457 10452
10656 10659 10660 10662 10663 10664 10665 10666 10668 10669 10670 10671 10671 10670 10670 10671 10670 10670 10670 10670 10670 10669 10669 10668 10667 10666 10665 10664 10663 10662 10660 10659 10658 10656 10654 10653 10651 10649 10647 10645 10642 10640 10637 10635 10632 10629 10627 10623 10620 10617 10614 10611 10607 10604 10600 10597 10593 10590 10586 10583 10578 10574 10571 10567 10563 10558 10554 10549 10544 10539 10534 10528 10522 10517 10511 10505 10499 10494 10489 10483 10476 10467 10455 10447 10443
10652 10654 10655 10658 10659 10659 10661 10662 10663 10665 10666 10666 10666 10666 10667 10667 10666 10666 10666 10666 10666 10665 10664 10664 10663 10662 10661 10660 10659 10657 10656 10654 10653 10652 10650 10648 10646 10644 10642 10640 10638 10636 10633 10631 10628 10625 10622 10619 10616 10613 10610 10607 10603 10599 10595 10592 10588 10585 10581 10577 10573 10569 10566 10562 10558 10553 10549 10544 10539 10533 10528 10523 10517 10511 10505 10499 10492 10485 10479 10473 10467 10461 10451 10440 10432
10648 10649 10651 10653 10654 10655 10657 10658 10660 10661 10661 10662 10662 10662 10663 10662 10662 10662 10663 10663 10662 10661 10660 10659 10658 10657 10656 10655 10654 10652 10651 10650 10648 10647 10645 10643 10642 10640 10638 10636 10634 10631 10629 10626 10624 10621 10618 10615 10612 10609 10606 10602 10599 10595 10591 10587 10583 10580 10576 10572 10568 10564 10561 10556 10552 10548 10543 10538 10533 10528 10522 10517 10511 10506 10500 10494 10488 10480 10473 10465 10457 10451 10444 10435 10425
10643 10645 10647 10649 10650 10651 10653 10655 10656 10657 10657 10658 10658 10658 10659 10658 10658 10659 10658 10658 10658 10657 10656 10655 10654 10653 10652 10651 10649 10648 10647 10645 10644 10642 10641 10639 10637 10635 10633 10631 10629 10627 10624 10622 10619 10617 10613 10610 10607 10604 10601 10597 10594 10590 10586 10582 10578 10575 10571 10567 10563 10559 10555 10551 10547 10542 10538 10533 10527 10522 10517 10511 10506 10500 10495 10489 10483 10477 10470 10462 10454 10445 10437 10430 10422
10639 10641 10642 10644 10645 10647 10649 10651 10652 10652 10653 10654 10654 10655 10655 10655 10655 10655 10654 10654 10653 10652 10652 10650 10649 10648 10647 10646 10645 10643 10642 10640 10639 10638 10637 10635 10633 10631 10629 10627 10625 10623 10620 10618 10615 10612 10608 10605 10602 10598 10595 10591 10588 10585 10581 10577 10574 10570 10566 10562 10558 10554 10550 10546 10541 10537 10532 10527 10522 10517 10511 10506 10500 10495 10489 10484 10478 10472 10465 10458 10451 10442 10434 10426 10419
10634 10636 10638 10639 10641 10643 10646 10647 10647 10648 10648 10649 10650 10651 10651 10651 10651 10650 10650 10649 10649 10648 10647 10646 10644 10643 10643 10642 10640 10639 10638 10636 10635 10634 10632 10631 10629 10626 10625 10623 10621 10619 10616 10614 10611 10607 10604 10600 10596 10593 10589 10586 10583 10580 10576 10572 10569 10565 10561 10557 10553 10549 10545 10541 10536 10531 10527 10522 10516 10511 10506 10501 10495 10490 10484 10479 10472 10466 10460 10453 10446 10439 10430 10421 10413
10630 10631 10633 10635 10637 10640 10641 10642 10643 10643 10644 10645 10646 10647 10647 10647 10646 10645 10645 10645 10644 10644 10643 10641 10640 10639 10638 10637 10636 10635 10633 10632 10630 10629 10628 10626 10624 10622 10620 10619 10617 10615 10613 10610 10607 10603 10600 10596 10593 10589 10586 10583 10579 10575 10571 10568 10564 10560 10556 10552 10548 10544 10540 10536 10531 10526 10521 10516 10511 10506 10501 10496 10491 10485 10479 10474 10468 10461 10455 10448 10441 10434 10427 10419 10410
10625 10626 10628 10631 10633 10635 10636 10637 10639 10639 10640 10641 10642 10643 10643 10643 10642 10641 10641 10641 10640 10639 10638 10637 10636 10635 10634 10633 10631 10630 10628 10627 10625 10624 10623 10621 10619 10618 10616 10614 10613 10611 10609 10607 10603 10600 10596 10593 10589 10586 10582 10579 10575 10570 10567 10563 10560 10556 10551 10547 10543 10538 10534 10530 10526 10521 10516 10511 10506 10501 10496 10491 10486 10480 10475 10469 10463 10457 10450 10443 10436 10429 10423 10416 10408
10620 10622 10624 10627 10629 10630 10631 10633 10634 10634 10635 10637 10638 10639 10639 10638 10637 10637 10637 10637 10636 10635 10634 10633 10632 10631 10630 10628 10626 10625 10624 10623 10621 10620 10619 10617 10615 10613 10611 10610 10608 10607 10605 10603 10600 10596 10593 10589 10585 10581 10578 10574 10570 10566 10562 10558 10555 10551 10546 10541 10537 10533 10528 10524 10520 10516 10511 10506 10501 10497 10492 10487 10481 10476 10470 10464 10458 10451 10444 10437 10430 10423 10416 10410 10404
10616 10618 10620 10622 10624 10625 10627 10628 10629 10629 10630 10632 10634 10634 10634 10633 10633 10633 10633 10633 10632 10631 10630 10628 10627 10626 10625 10623 10621 10621 10620 10619 10617 10616 10614 10613 10611 10609 10607 10605 10603 10601 10600 10598 10595 10592 10589 10585 10581 10577 10573 10570 10566 10561 10557 10552 10550 10546 10541 10536 10531 10527 10523 10518 10514 10510 10506 10501 10497 10492 10487 10482 10477 10471 10466 10459 10453 10446 10439 10432 10425 10418 10410 10404 10398
10611 10613 10615 10617 10619 10620 10622 10623 10624 10625 10626 10628 10629 10629 10629 10629 10628 10629 10629 10629 10629 10628 10626 10624 10622 10622 10621 10619 10617 10616 10615 10614 10613 10611 10610 10609 10607 10604 10602 10600 10598 10597 10596 10594 10591 10588 10584 10581 10577 10573 10569 10565 10561 10557 10552 10547 10543 10539 10534 10529 10524 10520 10516 10513 10509 10505 10501 10497 10492 10487 10482 10477 10472 10467 10461 10455 10448 10441 10434 10428 10421 10414 10407 10399 10392
10606 10607 10610 10612 10613 10615 10616 10618 10620 10621 10621 10623 10624 10624 10623 10624 10624 10625 10625 10625 10625 10624 10623 10620 10618 10617 10616 10615 10613 10612 10611 10609 10608 10606 10606 10604 10602 10600 10597 10595 10593 10593 10592 10589 10586 10583 10580 10576 10572 10568 10565 10561 10557 10553 10548 10542 10537 10532 10527 10522 10518 10515 10511 10507 10504 10499 10496 10492 10487 10482 10477 10472 10467 10462 10456 10450 10443 10437 10430 10424 10417 10411 10404 10396 10387
10600 10602 10604 10606 10608 10610 10612 10614 10616 10616 10617 10618 10618 10618 10618 10619 10620 10621 10622 10621 10621 10620 10620 10617 10614 10613 10612 10610 10608 10607 10606 10605 10603 10602 10601 10599 10597 10594 10591 10589 10588 10587 10585 10583 10580 10578 10575 10572 10568 10564 10561 10557 10552 10547 10543 10538 10533 10527 10522 10516 10512 10509 10506 10502 10498 10494 10491 10487 10482 10477 10472 10468 10462 10457 10451 10445 10439 10432 10426 10419 10413 10406 10399 10392 10384
10594 10596 10598 10600 10603 10605 10607 10610 10611 10612 10612 10613 10613 10613 10614 10615 10616 10617 10617 10617 10616 10616 10616 10614 10612 10612 10612 10609 10605 10603 10602 10600 10599 10598 10597 10595 10593 10589 10585 10583 10583 10582 10580 10578 10576 10574 10571 10567 10564 10560 10556 10551 10547 10542 10537 10533 10529 10523 10517 10512 10508 10504 10501 10497 10493 10490 10486 10482 10477 10472 10468 10463 10457 10452 10446 10440 10434 10428 10422 10415 10408 10401 10395 10388 10381
10587 10590 10593 10596 10599 10601 10604 10606 10607 10608 10608 10608 10608 10609 10610 10611 10612 10612 10612 10613 10612 10612 10612 10610 10609 10610 10611 10609 10603 10599 10597 10596 10595 10594 10593 10591 10590 10587 10583 10581 10580 10578 10576 10574 10572 10569 10566 10563 10559 10556 10551 10547 10542 10537 10532 10528 10524 10518 10512 10507 10503 10500 10496 10492 10489 10485 10481 10477 10472 10467 10463 10457 10452 10447 10441 10436 10429 10423 10417 10410 10404 10398 10391 10384 10377
10581 10585 10589 10593 10595 10597 10600 10602 10603 10603 10602 10602 10604 10605 10606 10607 10607 10606 10608 10609 10609 10609 10609 10607 10605 10605 10607 10604 10598 10593 10592 10591 10590 10590 10589 10587 10586 10585 10583 10580 10577 10575 10573 10570 10568 10565 10561 10559 10556 10552 10547 10542 10538 10533 10528 10523 10519 10514 10508 10503 10499 10495 10492 10488 10484 10481 10476 10472 10467 10463 10458 10452 10447 10441 10436 10430 10425 10419 10413 10406 10400 10394 10388 10380 10372
10577 10581 10585 10588 10591 10594 10596 10597 10597 10597 10597 10598 10600 10601 10602 10601 10601 10601 10603 10605 10605 10605 10605 10604 10601 10600 10600 10598 10593 10590 10588 10587 10585 10584 10584 10583 10582 10580 10579 10576 10573 10571 10569 10566 10563 10560 10557 10554 10552 10548 10543 10539 10534 10529 10524 10518 10513 10508 10503 10499 10495 10491 10487 10484 10480 10476 10472 10468 10463 10458 10453 10447 10441 10436 10430 10425 10419 10413 10408 10402 10395 10389 10383 10376 10368
10572 10576 10579 10583 10586 10589 10591 10592 10592 10591 10591 10593 10594 10596 10597 10596 10596 10596 10597 10599 10601 10602 10600 10600 10598 10595 10594 10592 10589 10587 10584 10581 10579 10579 10579 10578 10577 10575 10573 10571 10568 10566 10564 10561 10558 10555 10552 10549 10546 10543 10539 10534 10529 10524 10519 10513 10508 10503 10498 10495 10491 10488 10483 10479 10476 10472 10467 10463 10458 10453 10448 10442 10436 10430 10425 10419 10414 10408 10402 10396 10390 10384 10378 10372 10365
10567 10571 10574 10577 10580 10583 10585 10585 10584 10585 10585 10587 10589 10591 10592 10591 10591 10591 10591 10593 10595 10596 10595 10595 10594 10592 10589 10587 10586 10584 10580 10576 10575 10575 10575 10574 10572 10570 10568 10566 10564 10562 10559 10556 10553 10550 10547 10545 10542 10539 10534 10530 10524 10519 10514 10509 10503 10498 10494 10491 10487 10484 10479 10475 10471 10467 10463 10458 10453 10449 10444 10437 10431 10426 10420 10414 10408 10402 10396 10390 10383 10377 10371 10366 10360
10563 10566 10570 10573 10574 10576 10577 10577 10577 10578 10579 10580 10583 10585 10586 10586 10586 10586 10585 10586 10587 10588 10588 10588 10588 10587 10585 10583 10583 10580 10575 10571 10572 10572 10570 10569 10566 10564 10563 10561 10560 10558 10555 10552 10548 10545 10543 10541 10538 10534 10530 10525 10520 10515 10510 10505 10499 10494 10490 10487 10483 10479 10475 10471 10467 10463 10459 10454 10449 10444 10439 10433 10427 10421 10415 10409 10403 10397 10390 10384 10377 10370 10364 10358 10354
10561 10566 10570 10570 10569 10569 10570 10571 10571 10572 10573 10575 10578 10579 10580 10581 10580 10580 10580 10580 10580 10581 10582 10582 10582 10583 10581 10579 10578 10574 10569 10567 10567 10566 10564 10563 10561 10559 10558 10556 10554 10552 10549 10546 10543 10541 10538 10536 10533 10529 10525 10519 10514 10509 10505 10500 10495 10491 10486 10483 10479 10475 10471 10467 10463 10459 10455 10449 10444 10440 10435 10429 10423 10417 10411 10406 10400 10393 10386 10380 10373 10366 10359 10352 10346
10558 10561 10563 10561 10560 10562 10566 10566 10566 10566 10567 10570 10572 10574 10575 10575 10575 10576 10577 10576 10574 10574 10575 10575 10577 10579 10576 10572 10569 10567 10563 10561 10561 10560 10559 10557 10555 10553 10552 10550 10548 10545 10542 10540 10537 10535 10533 10531 10528 10524 10519 10514 10509 10504 10500 10496 10491 10486 10482 10478 10475 10471 10466 10462 10458 10454 10450 10445 10440 10435 10430 10425 10419 10413 10408 10402 10396 10390 10383 10376 10370 10364 10356 10348 10341
10551 10553 10553 10553 10555 10559 10561 10561 10560 10559 10561 10564 10566 10568 10569 10570 10570 10572 10573 10572 10569 10567 10566 10568 10571 10574 10569 10563 10560 10559 10557 10556 10556 10555 10554 10551 10549 10547 10546 10544 10541 10539 10536 10533 10531 10529 10528 10526 10523 10519 10514 10509 10504 10499 10495 10491 10486 10481 10477 10473 10470 10466 10461 10457 10453 10449 10445 10440 10435 10431 10425 10420 10415 10409 10404 10399 10393 10386 10380 10373 10367 10362 10355 10347 10339
10544 10546 10547 10549 10552 10554 10555 10555 10553 10553 10556 10559 10561 10563 10563 10564 10565 10568 10569 10568 10564 10560 10558 10560 10564 10565 10560 10554 10553 10553 10552 10552 10552 10550 10548 10546 10544 10542 10539 10537 10536 10533 10530 10527 10525 10523 10522 10521 10518 10513 10508 10503 10498 10493 10489 10486 10481 10476 10472 10468 10464 10460 10456 10452 10448 10444 10440 10436 10431 10426 10421 10416 10411 10406 10400 10395 10389 10383 10377 10371 10365 10360 10353 10346 10339
10536 10538 10541 10545 10548 10549 10551 10552 10550 10551 10555 10557 10558 10558 10558 10558 10560 10562 10563 10563 10561 10557 10554 10554 10556 10555 10552 10549 10548 10549 10548 10547 10547 10545 10543 10540 10538 10536 10534 10531 10529 10527 10524 10522 10519 10517 10516 10515 10512 10507 10502 10497 10492 10487 10483 10480 10476 10471 10466 10462 10458 10455 10451 10447 10443 10439 10435 10431 10426 10422 10417 10412 10407 10402 10396 10391 10386 10380 10375 10369 10363 10357 10351 10344 10338
10530 10533 10537 10540 10543 10546 10550 10551 10551 10552 10553 10553 10553 10553 10551 10552 10553 10554 10555 10557 10557 10554 10552 10551 10550 10549 10547 10545 10544 10544 10543 10543 10542 10540 10537 10535 10533 10531 10528 10526 10524 10521 10519 10516 10513 10511 10510 10508 10505 10501 10496 10491 10486 10482 10477 10473 10470 10466 10461 10456 10452 10449 10445 10441 10438 10434 10431 10426 10422 10417 10413 10408 10403 10397 10392 10387 10382 10377 10372 10366 10360 10354 10348 10341 10336
10526 10528 10531 10534 10539 10545 10550 10551 10549 10548 10548 10548 10547 10546 10545 10545 10546 10546 10548 10550 10550 10548 10547 10546 10545 10544 10542 10541 10540 10539 10538 10538 10537 10534 10531 10529 10527 10525 10522 10520 10518 10516 10514 10511 10507 10504 10503 10501 10498 10493 10489 10485 10481 10476 10472 10468 10464 10460 10455 10450 10446 10443 10439 10435 10432 10429 10425 10421 10417 10412 10408 10403 10398 10393 10389 10384 10379 10374 10369 10363 10357 10351 10345 10339 10333
10519 10521 10523 10529 10536 10542 10544 10543 10541 10541 10543 10543 10540 10538 10538 10538 10538 10538 10540 10542 10542 10541 10540 10539 10538 10538 10538 10536 10535 10534 10533 10532 10531 10528 10525 10522 10520 10518 10516 10514 10512 10510 10508 10505 10501 10498 10495 10493 10490 10486 10482 10478 10475 10471 10466 10462 10458 10454 10449 10445 10440 10437 10434 10430 10427 10423 10420 10416 10412 10408 10403 10399 10394 10389 10385 10380 10375 10370 10365 10360 10354 10348 10342 10336 10331
10513 10515 10518 10525 10531 10533 10534 10533 10532 10534 10536 10536 10533 10530 10529 10529 10530 10531 10532 10533 10533 10533 10532 10532 10532 10532 10531 10530 10529 10528 10527 10526 10524 10522 10519 10515 10512 10510 10508 10507 10506 10504 10502 10498 10494 10491 10488 10485 10482 10479 10475 10471 10468 10464 10460 10456 10452 10448 10443 10439 10435 10432 10429 10425 10422 10418 10415 10411 10407 10403 10399 10395 10390 10385 10381 10376 10371 10366 10362 10356 10351 10346 10340 10334 10329
10508 10511 10514 10519 10523 10526 10528 10529 10528 10529 10529 10528 10524 10522 10521 10521 10522 10523 10524 10524 10524 10524 10524 10525 10524 10523 10523 10523 10523 10522 10521 10519 10517 10515 10512 10508 10505 10503 10502 10500 10499 10497 10495 10491 10488 10485 10482 10478 10475 10472 10468 10464 10460 10456 10453 10449 10445 10441 10437 10433 10430 10427 10424 10420 10417 10413 10410 10407 10403 10399 10395 10390 10386 10381 10377 10372 10367 10363 10358 10353 10348 10343 10337 10332 10327
10503 10506 10507 10511 10517 10520 10522 10524 10525 10525 10524 10519 10514 10513 10515 10516 10515 10515 10515 10515 10515 10516 10517 10517 10515 10515 10515 10515 10515 10514 10513 10511 10510 10508 10505 10502 10498 10496 10495 10493 10491 10489 10487 10484 10481 10478 10476 10472 10469 10465 10461 10457 10452 10449 10445 10442 10438 10434 10430 10427 10424 10422 10419 10416 10412 10409 10405 10402 10398 10394 10390 10386 10381 10377 10372 10368 10364 10359 10354 10350 10345 10340 10335 10329 10324
10496 10499 10502 10506 10510 10514 10517 10519 10520 10519 10517 10513 10508 10508 10508 10507 10507 10507 10507 10507 10508 10508 10508 10508 10508 10507 10507 10507 10507 10507 10506 10504 10502 10500 10498 10495 10492 10490 10488 10486 10483 10481 10479 10476 10474 10471 10468 10465 10462 10458 10453 10448 10444 10441 10438 10434 10431 10428 10424 10421 10419 10416 10414 10411 10408 10404 10401 10397 10393 10389 10385 10381 10377 10372 10368 10364 10360 10355 10351 10346 10342 10337 10332 10327 10322
10490 10493 10497 10502 10506 10508 10511 10513 10512 10511 10509 10506 10502 10499 10497 10498 10500 10501 10500 10500 10500 10500 10500 10500 10500 10500 10499 10499 10500 10499 10498 10497 10494 10492 10491 10489 10486 10483 10481 10478 10475 10472 10470 10468 10466 10463 10460 10457 10454 10449 10444 10440 10436 10433 10430 10427 10424 10422 10419 10416 10413 10410 10408 10405 10403 10400 10396 10392 10388 10385 10380 10376 10372 10368 10364 10360 10355 10351 10347 10343 10338 10334 10329 10325 10320
10485 10488 10492 10495 10498 10500 10500 10501 10501 10501 10500 10497 10494 10491 10490 10492 10494 10494 10494 10493 10493 10493 10493 10493 10493 10492 10492 10492 10492 10491 10490 10489 10487 10485 10484 10481 10479 10476 10474 10471 10468 10465 10462 10460 10457 10454 10451 10448 10444 10440 10435 10431 10428 10424 10422 10420 10418 10415 10413 10410 10407 10404 10402 10400 10397 10394 10390 10387 10383 10379 10375 10372 10368 10364 10359 10355 10351 10347 10343 10339 10335 10330 10326 10322 10317
10480 10483 10485 10485 10487 10489 10489 10490 10492 10492 10491 10490 10488 10487 10486 10486 10486 10486 10486 10486 10486 10486 10486 10486 10485 10484 10484 10484 10484 10483 10482 10480 10479 10477 10476 10474 10471 10468 10466 10463 10460 10458 10456 10453 10450 10447 10444 10440 10436 10432 10427 10423 10420 10418 10415 10414 10412 10409 10407 10404 10402 10399 10396 10394 10392 10389 10385 10381 10377 10374 10370 10367 10363 10359 10355 10351 10346 10342 10339 10335 10331 10327 10323 10319 10314
10472 10473 10474 10475 10476 10478 10479 10480 10481 10481 10481 10480 10480 10479 10478 10478 10478 10478 10478 10478 10478 10478 10478 10477 10477 10476 10476 10476 10476 10475 10474 10472 10471 10469 10468 10466 10463 10460 10458 10455 10452 10451 10448 10446 10443 10440 10436 10433 10429 10425 10421 10417 10415 10412 10410 10407 10406 10403 10401 10399 10396 10393 10390 10388 10385 10383 10379 10375 10371 10368 10365 10362 10358 10354 10350 10346 10342 10338 10334 10331 10327 10323 10319 10315 10311
10462 10463 10464 10464 10465 10466 10467 10468 10469 10469 10469 10470 10470 10469 10469 10469 10469 10469 10470 10470 10470 10470 10469 10469 10469 10469 10468 10468 10467 10466 10465 10464 10463 10462 10460 10458 10455 10452 10449 10446 10444 10443 10440 10438 10436 10433 10429 10426 10422 10418 10415 10412 10409 10406 10404 10401 10399 10397 10395 10392 10389 10386 10384 10381 10379 10377 10373 10370 10366 10362 10359 10356 10353 10349 10345 10342 10338 10334 10330 10327 10323 10319 10315 10312 10308
10453 10454 10453 10452 10452 10454 10455 10456 10457 10458 10459 10460 10461 10461 10461 10461 10461 10461 10461 10461 10461 10461 10461 10461 10461 10462 10461 10460 10459 10457 10456 10455 10454 10454 10452 10449 10446 10443 10440 10438 10437 10435 10433 10431 10428 10425 10422 10418 10415 10412 10409 10406 10403 10400 10397 10395 10393 10391 10388 10386 10382 10380 10377 10375 10373 10370 10367 10363 10360 10357 10354 10350 10347 10344 10340 10337 10333 10329 10326 10322 10319 10315 10312 10308 10304
10442 10442 10441 10441 10442 10443 10445 10447 10448 10449 10450 10451 10452 10452 10453 10453 10453 10453 10453 10453 10453 10453 10453 10453 10453 10454 10453 10452 10450 10449 10447 10447 10446 10444 10442 10440 10437 10434 10432 10431 10430 10428 10427 10425 10421 10417 10414 10410 10407 10404 10402 10399 10396 10393 10391 10389 10387 10384 10382 10379 10376 10373 10371 10369 10367 10364 10361 10357 10354 10351 10348 10344 10341 10338 10335 10332 10328 10324 10321 10318 10314 10311 10307 10304 10300
10433 10434 10434 10435 10436 10437 10439 10440 10442 10442 10442 10443 10443 10444 10444 10445 10445 10446 10446 10445 10445 10444 10444 10444 10444 10444 10443 10442 10440 10439 10439 10438 10436 10434 10433 10431 10428 10426 10424 10423 10422 10421 10420 10418 10415 10411 10407 10404 10401 10398 10395 10392 10389 10386 10384 10382 10379 10377 10375 10372 10370 10367 10365 10363 10361 10358 10354 10350 10347 10345 10341 10338 10335 10332 10329 10326 10323 10319 10316 10313 10310 10306 10303 10300 10296
10427 10429 10429 10429 10430 10431 10431 10432 10433 10434 10434 10435 10435 10436 10436 10437 10437 10437 10437 10437 10436 10435 10435 10434 10434 10434 10433 10433 10432 10430 10430 10429 10427 10425 10423 10422 10420 10418 10416 10415 10414 10412 10412 10410 10407 10404 10400 10397 10394 10391 10388 10385 10383 10380 10377 10375 10372 10370 10367 10365 10363 10360 10359 10356 10354 10351 10347 10344 10341 10338 10335 10332 10329 10327 10324 10320 10317 10314 10311 10308 10305 10302 10298 10295 10292
10420 10421 10419 10419 10420 10421 10422 10423 10424 10425 10425 10426 10426 10427 10428 10428 10428 10428 10428 10427 10426 10425 10425 10424 10424 10423 10424 10424 10423 10422 10421 10420 10418 10417 10414 10413 10411 10409 10407 10406 10404 10403 10402 10401 10399 10395 10392 10389 10386 10383 10381 10378 10375 10373 10370 10367 10365 10362 10360 10358 10356 10354 10352 10349 10347 10344 10341 10337 10334 10331 10328 10326 10323 10320 10318 10314 10311 10308 10305 10303 10300 10297 10294 10291 10288
10411 10411 10410 10410 10411 10413 10414 10415 10416 10416 10416 10417 10417 10417 10418 10418 10418 10417 10417 10417 10416 10416 10416 10415 10414 10414 10414 10415 10414 10414 10413 10411 10410 10408 10405 10404 10403 10401 10399 10396 10394 10392 10391 10390 10388 10385 10382 10379 10377 10374 10372 10370 10367 10365 10362 10360 10357 10355 10353 10351 10349 10346 10344 10342 10339 10336 10334 10331 10328 10325 10322 10319 10317 10314 10312 10308 10305 10302 10300 10297 10294 10291 10289 10286 10283
10402 10403 10403 10403 10404 10406 10407 10407 10408 10408 10409 10409 10409 10408 10408 10408 10408 10408 10408 10408 10408 10408 10408 10407 10406 10406 10406 10406 10406 10405 10404 10403 10401 10398 10396 10395 10394 10393 10390 10387 10385 10383 10381 10380 10377 10375 10372 10369 10367 10365 10363 10361 10359 10357 10354 10352 10350 10347 10345 10343 10341 10339 10337 10335 10332 10329 10327 10324 10321 10318 10315 10312 10310 10308 10305 10302 10299 10296 10294 10291 10288 10286 10283 10281 10278
10393 10395 10395 10396 10396 10397 10398 10399 10399 10400 10400 10400 10400 10400 10400 10400 10400 10401 10401 10401 10400 10400 10399 10399 10398 10397 10397 10397 10397 10396 10395 10394 10392 10390 10388 10386 10385 10383 10381 10378 10376 10374 10372 10371 10368 10366 10363 10361 10358 10356 10354 10353 10351 10349 10346 10344 10342 10340 10337 10335 10333 10331 10329 10327 10325 10322 10320 10317 10313 10310 10308 10305 10303 10301 10298 10296 10293 10290 10287 10285 10282 10280 10277 10275 10273
10384 10386 10387 10388 10388 10388 10389 10390 10390 10391 10391 10391 10391 10391 10391 10391 10391 10392 10392 10392 10392 10391 10390 10390 10389 10389 10388 10388 10387 10387 10385 10384 10382 10381 10379 10378 10376 10374 10371 10369 10367 10365 10363 10361 10359 10357 10354 10352 10350 10347 10346 10344 10342 10340 10338 10336 10334 10331 10329 10327 10325 10323 10321 10319 10317 10314 10312 10309 10306 10303 10300 10298 10296 10293 10291 10289 10286 10284 10281 10278 10276 10274 10271 10269 10267
10375 10377 10379 10379 10379 10379 10379 10380 10381 10382 10383 10383 10383 10383 10382 10381 10382 10382 10383 10383 10382 10381 10380 10380 10379 10379 10379 10378 10378 10377 10375 10373 10372 10371 10369 10368 10366 10365 10362 10360 10358 10356 10354 10352 10350 10347 10345 10343 10340 10338 10336 10335 10333 10331 10329 10327 10325 10323 10320 10318 10316 10314 10313 10310 10308 10306 10304 10301 10298 10295 10293 10291 10288 10286 10284 10282 10279 10277 10274 10272 10269 10267 10265 10263 10261